Weather History for KMAN - July, 2013

Change the Weather History Date:

Wednesday, July 3, 2013

  Actual Average (KBOI) Record (KBOI)
Temperature  
Mean Temperature 86 °F 73 °F  
Max Temperature 98 °F 88 °F 106 °F (2001)
Min Temperature 75 °F 58 °F 40 °F (1983)
Degree Days  
Heating Degree Days 0 1  
Month to date heating degree days 3  
Since 1 June heating degree days 67  
Since 1 July heating degree days 3  
Cooling Degree Days 22 8  
Month to date cooling degree days 24  
Year to date cooling degree days 207  
Since 1 June cooling degree days 163  
Growing Degree Days 36 (Base 50)    
Moisture  
Dew Point 55 °F    
Average Humidity 35    
Maximum Humidity 61    
Minimum Humidity 19    
Precipitation  
Precipitation 0.00 in 0.01 in 0.23 in (1940)
Month to date precipitation 0.04  
Year to date precipitation 6.97  
Snow  
Snow 0.00 in 0.00 in 0.00 in (2006)
Month to date snowfall 0.0  
Since 1 July snowfall 0.0  
Snow Depth -    
Sea Level Pressure  
Sea Level Pressure 29.97 in    
Wind  
Wind Speed 8 mph (WNW)    
Max Wind Speed 14 mph    
Max Gust Speed 22 mph    
Visibility 10 miles    
Events      
T = Trace of Precipitation, MM = Missing Value Source: NWS Daily Summary

Daily Weather History Graph

Daily Weather History Graph

Search for Another Location

Airport or City:

Trip Planner

Search our weather history database for the weather conditions in past years. The results will help you decide how hot, cold, wet, or windy it might be!

Date:

Astronomy

Jul. 03, 2013 Rise Set
Actual Time 6:09 AM MDT 9:30 PM MDT
Civil Twilight 5:34 AM MDT 10:06 PM MDT
Nautical Twilight 4:48 AM MDT 10:52 PM MDT
Astronomical Twilight 3:50 AM MDT 11:49 PM MDT
Moon 2:54 AM MDT 5:42 PM MDT
Length of Visible Light 16h 31m
Length of Day
15h 20m
Waning Crescent, 18% of the Moon is Illuminated
Jul 3
Waning Crescent
Jul 8
New
Jul 15
First Quarter
Jul 22
Full
Jul 29
Last Quarter

Hourly Weather History & Observations

Time (MDT) Temp. Heat Index Dew Point Humidity Pressure Visibility Wind Dir Wind Speed Gust Speed Precip Events Conditions
12:15 AM 86.0 °F - 51.8 °F 31% 29.97 in 10.0 mi WNW 8.1 mph - N/A   Clear
12:35 AM 87.8 °F 85.7 °F 53.6 °F 31% 29.97 in 10.0 mi NNW 8.1 mph - N/A   Partly Cloudy
12:55 AM 86.0 °F 84.9 °F 57.2 °F 37% 29.97 in 10.0 mi NE 4.6 mph - N/A   Mostly Cloudy
1:15 AM 82.4 °F 82.0 °F 57.2 °F 42% 29.99 in 10.0 mi SW 3.5 mph - N/A   Mostly Cloudy
1:35 AM 82.4 °F 82.5 °F 59.0 °F 45% 29.99 in 10.0 mi East 8.1 mph - N/A   Partly Cloudy
1:55 AM 84.2 °F 83.5 °F 57.2 °F 40% 30.01 in 10.0 mi SE 12.7 mph 21.9 mph N/A   Clear
2:15 AM 82.4 °F 82.0 °F 57.2 °F 42% 30.02 in 10.0 mi SE 10.4 mph - N/A   Scattered Clouds
2:35 AM 80.6 °F 81.1 °F 59.0 °F 48% 30.04 in 10.0 mi SSE 10.4 mph 17.3 mph N/A   Partly Cloudy
2:55 AM 80.6 °F 81.1 °F 59.0 °F 48% 30.04 in 10.0 mi SSE 8.1 mph 16.1 mph N/A   Clear
3:15 AM 80.6 °F 81.1 °F 59.0 °F 48% 30.04 in 10.0 mi SSE 4.6 mph - N/A   Clear
3:35 AM 80.6 °F 81.1 °F 59.0 °F 48% 30.05 in 10.0 mi SE 9.2 mph - N/A   Clear
3:55 AM 80.6 °F 81.1 °F 59.0 °F 48% 30.05 in 10.0 mi SSE 5.8 mph - N/A   Clear
4:15 AM 78.8 °F - 57.2 °F 47% 30.06 in 10.0 mi SSE 8.1 mph - N/A   Clear
4:35 AM 77.0 °F - 59.0 °F 54% 30.07 in 10.0 mi SSE 6.9 mph - N/A   Clear
4:55 AM 78.8 °F - 59.0 °F 51% 30.06 in 10.0 mi ESE 6.9 mph - N/A   Clear
5:15 AM 78.8 °F - 59.0 °F 51% 30.05 in 10.0 mi East 5.8 mph - N/A   Clear
5:35 AM 77.0 °F - 59.0 °F 54% 30.05 in 10.0 mi ESE 5.8 mph - N/A   Clear
5:55 AM 77.0 °F - 60.8 °F 57% 30.05 in 10.0 mi North - - N/A   Clear
6:15 AM 77.0 °F - 60.8 °F 57% 30.04 in 10.0 mi SE 4.6 mph - N/A   Clear
6:35 AM 75.2 °F - 60.8 °F 61% 30.04 in 10.0 mi North - - N/A   Clear
6:55 AM 77.0 °F - 59.0 °F 54% 30.03 in 10.0 mi North - - N/A   Clear
7:15 AM 77.0 °F - 59.0 °F 54% 30.03 in 10.0 mi North - - N/A   Clear
7:35 AM 78.8 °F - 59.0 °F 51% 30.03 in 10.0 mi North - - N/A   Clear
7:55 AM 80.6 °F 81.1 °F 59.0 °F 48% 30.03 in 10.0 mi North - - N/A   Clear
8:15 AM 78.8 °F - 60.8 °F 54% 30.03 in 10.0 mi North 4.6 mph - N/A   Clear
8:35 AM 78.8 °F - 60.8 °F 54% 30.02 in 10.0 mi NNW 4.6 mph - N/A   Clear
8:55 AM 80.6 °F 81.5 °F 60.8 °F 51% 30.03 in 10.0 mi Calm Calm - N/A   Clear
9:15 AM 80.6 °F 81.1 °F 59.0 °F 48% 30.03 in 10.0 mi Calm Calm - N/A   Clear
9:35 AM 84.2 °F 83.8 °F 59.0 °F 42% 30.02 in 10.0 mi NW 10.4 mph 20.7 mph N/A   Clear
9:55 AM 84.2 °F 83.5 °F 57.2 °F 40% 30.01 in 10.0 mi WNW 10.4 mph - N/A   Clear
10:15 AM 84.2 °F 83.0 °F 55.4 °F 37% 30.01 in 10.0 mi West 8.1 mph - N/A   Clear
10:35 AM 84.2 °F 83.0 °F 55.4 °F 37% 30.01 in 10.0 mi West 9.2 mph - N/A   Clear
10:55 AM 84.2 °F 83.5 °F 57.2 °F 40% 30.01 in 10.0 mi WNW 9.2 mph - N/A   Clear
11:15 AM 86.0 °F 84.9 °F 57.2 °F 37% 30.01 in 10.0 mi WNW 12.7 mph - N/A   Clear
11:35 AM 86.0 °F 84.9 °F 57.2 °F 37% 30.01 in 10.0 mi West 11.5 mph - N/A   Clear
11:55 AM 89.6 °F 88.1 °F 57.2 °F 33% 30.01 in 10.0 mi West 12.7 mph 16.1 mph N/A   Clear
12:15 PM 91.4 °F 89.4 °F 55.4 °F 29% 30.01 in 10.0 mi WNW 13.8 mph 19.6 mph N/A   Clear
12:35 PM 91.4 °F 89.4 °F 55.4 °F 29% 30.01 in 10.0 mi West 12.7 mph - N/A   Clear
12:55 PM 93.2 °F 91.3 °F 55.4 °F 28% 30.00 in 10.0 mi West 10.4 mph 17.3 mph N/A   Clear
1:15 PM 93.2 °F 90.8 °F 53.6 °F 26% 30.00 in 10.0 mi West 12.7 mph 18.4 mph N/A   Clear
1:35 PM 91.4 °F 89.1 °F 53.6 °F 28% 29.99 in 10.0 mi West 12.7 mph 17.3 mph N/A   Clear
1:55 PM 91.4 °F 89.1 °F 53.6 °F 28% 29.99 in 10.0 mi West 9.2 mph - N/A   Clear
2:15 PM 91.4 °F 89.1 °F 53.6 °F 28% 29.98 in 10.0 mi West 6.9 mph - N/A   Clear
2:35 PM 91.4 °F 89.1 °F 53.6 °F 28% 29.98 in 10.0 mi North - - N/A   Clear
2:55 PM 93.2 °F 90.8 °F 53.6 °F 26% 29.97 in 10.0 mi North - - N/A   Clear
3:15 PM 93.2 °F 90.8 °F 53.6 °F 26% 29.97 in 10.0 mi North - - N/A   Clear
3:35 PM 93.2 °F 90.8 °F 53.6 °F 26% 29.96 in 10.0 mi North - - N/A   Clear
3:55 PM 95.0 °F - 50.0 °F 22% 29.94 in 10.0 mi North - - N/A   Clear
4:15 PM 95.0 °F - 50.0 °F 22% 29.93 in 10.0 mi North - - N/A   Clear
4:35 PM 95.0 °F - 51.8 °F 23% 29.92 in 10.0 mi West 9.2 mph - N/A   Clear
4:55 PM 95.0 °F - 50.0 °F 22% 29.91 in 10.0 mi NW 10.4 mph - N/A   Clear
5:15 PM 98.6 °F - 50.0 °F 19% 29.91 in 10.0 mi NW 13.8 mph 18.4 mph N/A   Clear
5:35 PM 98.6 °F - 50.0 °F 19% 29.90 in 10.0 mi NW 11.5 mph 18.4 mph N/A   Clear
5:55 PM 98.6 °F - 50.0 °F 19% 29.90 in 10.0 mi NW 12.7 mph - N/A   Clear
6:15 PM 98.6 °F - 50.0 °F 19% 29.89 in 10.0 mi NW 13.8 mph - N/A   Clear
6:35 PM 95.0 °F - 50.0 °F 22% 29.88 in 10.0 mi NW 10.4 mph - N/A   Clear
6:55 PM 95.0 °F - 48.2 °F 20% 29.88 in 10.0 mi NNW 9.2 mph - N/A   Clear
7:15 PM 95.0 °F - 48.2 °F 20% 29.88 in 10.0 mi NW 10.4 mph - N/A   Clear
7:35 PM 95.0 °F - 48.2 °F 20% 29.87 in 10.0 mi NNW 8.1 mph - N/A   Clear
7:55 PM 93.2 °F - 50.0 °F 23% 29.87 in 10.0 mi NNW 6.9 mph - N/A   Clear
8:15 PM 93.2 °F - 48.2 °F 21% 29.87 in 10.0 mi NW 8.1 mph - N/A   Clear
8:35 PM 91.4 °F - 48.2 °F 23% 29.87 in 10.0 mi NW 5.8 mph - N/A   Clear
8:55 PM 91.4 °F - 48.2 °F 23% 29.87 in 10.0 mi NW 6.9 mph - N/A   Clear
9:15 PM 89.6 °F - 48.2 °F 24% 29.88 in 10.0 mi NW 5.8 mph - N/A   Clear
9:35 PM 89.6 °F - 48.2 °F 24% 29.88 in 10.0 mi WNW 5.8 mph - N/A   Clear
9:55 PM 86.0 °F - 48.2 °F 27% 29.88 in 10.0 mi NW 5.8 mph - N/A   Clear
10:15 PM 86.0 °F - 50.0 °F 29% 29.89 in 10.0 mi NW 4.6 mph - N/A   Clear
10:35 PM 86.0 °F - 50.0 °F 29% 29.90 in 10.0 mi NW 6.9 mph - N/A   Clear
10:55 PM 86.0 °F - 50.0 °F 29% 29.91 in 10.0 mi NW 8.1 mph - N/A   Clear
11:15 PM 84.2 °F - 50.0 °F 30% 29.91 in 10.0 mi NW 9.2 mph - N/A   Clear
11:35 PM 84.2 °F - 51.8 °F 33% 29.91 in 10.0 mi NW 9.2 mph - N/A   Clear
11:55 PM 82.4 °F - 51.8 °F 35% 29.91 in 10.0 mi NW 9.2 mph - N/A   Clear